Station EINL1 - 8764314 - North of Eugene Island, LA Image indicating link to RSS feed of recent meteorological observations for station EINL1


Conditions at EINL1 as of
(1:00 am CDT)
0600 GMT on 04/15/2024:
     

Click on the graph icon in the table below to see a time series plot of the last five days of that observation.

5-day plot - Wind Direction Wind Direction (WDIR): S ( 170 deg true )
5-day plot - Wind Speed Wind Speed (WSPD): 12.0 kts
5-day plot - Wind Gust Wind Gust (GST): 14.0 kts
5-day plot - Atmospheric Pressure Atmospheric Pressure (PRES):30.02 in
5-day plot - Pressure Tendency Pressure Tendency (PTDY):-0.05 in ( Falling )
5-day plot - Air Temperature Air Temperature (ATMP): 71.8 °F
5-day plot - Water Temperature Water Temperature (WTMP): 68.0 °F
5-day plot - Dew Point Dew Point (DEWP): 64.4 °F
5-day plot - Wind Speed at 10 Meters Wind Speed at 10 meters (WSPD10M): 13.6 kts
5-day plot - Wind Speed at 20 Meters Wind Speed at 20 meters (WSPD20M): 15.5 kts
5-day plot -  Wind Speed, Wind Gust and Atmospheric Pressure Combined plot of Wind Speed, Gust, and Air Pressure
NOS Water Level Observation Network Water Level
Previous observations
TIME
(CDT)
5-day plot - Wind Direction
WDIR
 
5-day plot - Wind Speed
WSPD
kts
5-day plot - Wind Gust
GST
kts
5-day plot - Wave Height
WVHT
ft
5-day plot - Dominant Wave Period
DPD
sec
5-day plot - Average Wave Period
APD
sec
5-day plot - Mean Wave Direction
MWD
 
5-day plot - Atmospheric Pressure
PRES
in
5-day plot - Pressure Tendency
PTDY
in
5-day plot - Air Temperature
ATMP
°F
5-day plot - Water Temperature
WTMP
°F
5-day plot - Dew Point
DEWP
°F
5-day plot - Salinity
SAL
psu
5-day plot - Visibility
VIS
nmi
5-day plot - Tide (above MLLW)
TIDE
ft
2024-04-15 12:54 amSSE 12.0 14.0----30.02- 71.8 68.0 64.2---
2024-04-15 12:48 amSSE 12.0 15.0----30.03- 71.8 68.2 64.8---
2024-04-15 12:42 am S 13.0 15.0----30.03- 71.8 68.2 64.0---
2024-04-15 12:36 am S 14.0 15.0----30.03- 72.0 68.2 63.9---
2024-04-15 12:30 am S 13.0 15.9----30.03- 72.1 68.2 64.4---
2024-04-15 12:24 am S 13.0 15.0----30.03- 72.0 68.2 63.9---
2024-04-15 12:18 am S 14.0 15.0----30.04- 72.1 68.2 63.7---
2024-04-15 12:12 am S 14.0 15.9----30.04- 72.1 68.2 63.1---
2024-04-15 12:06 am S 14.0 15.9----30.04- 72.1 68.2 63.1---
2024-04-15 12:00 am S 14.0 15.9----30.04-0.02 72.1 68.2 63.3---
2024-04-14 11:54 pm S 12.0 15.0----30.04- 71.8 68.2 64.0---
2024-04-14 11:48 pm S 14.0 15.9----30.04- 72.1 68.2 63.1---
2024-04-14 11:42 pm S 13.0 15.0----30.05- 72.0 68.2 63.7---
2024-04-14 11:36 pm S 12.0 15.0----30.05- 72.0 68.2 64.2---
2024-04-14 11:30 pm S 14.0 15.9----30.05- 72.3 68.2 63.3---
2024-04-14 11:24 pm S 14.0 15.9----30.05- 72.3 68.2 63.3---
2024-04-14 11:18 pm S 13.0 15.0----30.06- 72.3 68.2 64.0---
2024-04-14 11:12 pm S 13.0 15.0----30.06- 72.3 68.2 63.7---
2024-04-14 11:06 pm S 13.0 15.0----30.06- 72.3 68.2 63.1---
2024-04-14 11:00 pmSSE 12.0 14.0----30.06+0.00 72.1 68.2 63.3---
2024-04-14 10:54 pm S 12.0 14.0----30.07- 72.3 68.2 63.7---
2024-04-14 10:48 pmSSE 13.0 15.0----30.06- 72.3 68.2 63.1---
2024-04-14 10:42 pmSSE 13.0 14.0----30.06- 72.3 68.2 63.1---
2024-04-14 10:36 pmSSE 12.0 14.0----30.07- 72.7 68.2 63.5---
2024-04-14 10:30 pmSSE 12.0 13.0----30.07- 72.3 68.4 63.1---
2024-04-14 10:24 pm S 11.1 14.0----30.07- 72.5 68.4 63.9---
2024-04-14 10:18 pm S 12.0 15.0----30.07- 72.3 68.4 63.3---
2024-04-14 10:12 pmSSE 13.0 15.0----30.07- 72.5 68.4 63.0---
2024-04-14 10:06 pmSSE 12.0 14.0----30.07- 72.5 68.4 63.5---
2024-04-14 10:00 pmSSE 12.0 14.0----30.08+0.01 72.5 68.4 63.5---
2024-04-14 09:54 pmSSE 13.0 14.0----30.08- 72.7 68.4 63.7---
2024-04-14 09:48 pmSSE 12.0 14.0----30.07- 72.3 68.4 63.7---
2024-04-14 09:42 pmSSE 11.1 13.0----30.07- 72.5 68.4 63.9---
2024-04-14 09:36 pmSSE 12.0 13.0----30.07- 72.5 68.5 63.9---
2024-04-14 09:30 pmSSE 11.1 14.0----30.07- 72.3 68.5 63.7---
2024-04-14 09:24 pmSSE 11.1 12.0----30.07- 72.5 68.5 64.6---
2024-04-14 09:18 pmSSE 11.1 13.0----30.07- 72.3 68.5 64.4---
2024-04-14 09:12 pmSSE 12.0 14.0----30.07- 72.5 68.5 64.8---
2024-04-14 09:06 pmSSE 11.1 14.0----30.07- 72.5 68.5 65.1---
2024-04-14 09:00 pmSSE 12.0 13.0----30.06+0.00 72.5 68.5 64.6---
2024-04-14 08:54 pmSSE 11.1 12.0----30.07- 72.5 68.5 65.3---
2024-04-14 08:48 pmSSE 11.1 13.0----30.07- 72.5 68.5 64.9---
2024-04-14 08:42 pmSSE 12.0 13.0----30.06- 72.7 68.7 64.9---
2024-04-14 08:36 pmSSE 12.0 13.0----30.06- 72.7 68.7 64.4---
2024-04-14 08:30 pmSSE 11.1 12.0----30.07- 72.7 68.7 64.8---
2024-04-14 08:24 pmSSE 11.1 12.0----30.07- 72.9 68.7 64.6---
2024-04-14 08:18 pmSSE 11.1 13.0----30.07- 72.7 68.7 64.4---
2024-04-14 08:12 pmSSE 11.1 12.0----30.07- 72.9 68.7 64.8---
2024-04-14 08:06 pmSSE 11.1 12.0----30.07- 72.7 68.7 64.6---
2024-04-14 08:00 pmSSE 9.9 12.0----30.07-0.02 72.7 68.7 65.3---
2024-04-14 07:54 pmSSE 11.1 12.0----30.07- 72.5 68.7 64.8---
2024-04-14 07:48 pmSSE 11.1 12.0----30.07-- 68.7----
2024-04-14 07:42 pmSSE 11.1 12.0----30.06-- 68.7----
2024-04-14 07:36 pmSSE 11.1 13.0----30.06-- 68.9----
2024-04-14 07:30 pm-------30.07- 72.7 68.9 65.7---
2024-04-14 07:24 pm-------30.07- 72.9 68.9 64.6---
2024-04-14 07:18 pmSSE 9.9 11.1------ 72.7 68.9 64.2---
2024-04-14 07:12 pmSSE 8.9 11.1------ 73.0 68.9 64.6---
2024-04-14 07:06 pmSSE 9.9 11.1------ 72.9 68.9 64.4---
2024-04-14 07:00 pmSSE 11.1 11.1----30.07-0.03 72.9 68.9 64.0---
2024-04-14 06:54 pmSSE 9.9 12.0----30.07- 73.0 68.9 64.4---
2024-04-14 06:48 pmSSE 9.9 12.0----30.07- 73.0 68.9 64.8---
2024-04-14 06:42 pmSSE 8.9 12.0----30.07- 73.0 68.9 65.1---
2024-04-14 06:36 pmSSE 11.1 12.0----30.07- 73.2 68.9 64.4---
2024-04-14 06:30 pmSSE 9.9 12.0----30.07- 73.2 68.9 64.4---
2024-04-14 06:24 pmSSE 11.1 12.0----30.07- 73.0 68.9 64.8---
2024-04-14 06:00 pmSSE 11.1 13.0----30.07-0.04- 68.9----
2024-04-14 05:54 pmSSE 9.9 12.0----30.08-- 68.9----
2024-04-14 05:48 pmSSE 8.9 11.1----30.08- 73.2 68.7 65.5---
2024-04-14 05:42 pmSSE 8.9 11.1----30.08- 73.2 68.7 65.3---
2024-04-14 05:36 pmSSE 8.9 11.1----30.08- 73.6 68.7 65.5---
2024-04-14 05:30 pmSSE 9.9 12.0----30.08- 73.2 68.7 66.2---
2024-04-14 05:24 pmSSE 9.9 11.1----30.09- 72.9 68.7 65.7---
2024-04-14 05:18 pm SE 11.1 12.0----30.09- 73.0 68.7 65.8---
2024-04-14 05:12 pmSSE 8.9 11.1----30.09- 73.0 68.7 65.8---
2024-04-14 05:06 pmSSE 9.9 11.1----30.09- 73.0 68.7 66.2---
2024-04-14 05:00 pmSSE 9.9 13.0----30.09-0.06 72.9 68.7 65.8---
2024-04-14 04:54 pmSSE 9.9 12.0----30.09- 72.9 68.7 65.8---
2024-04-14 04:48 pmSSE 11.1 12.0----30.09-- 68.9----
2024-04-14 04:42 pmSSE 9.9 14.0----30.09-- 68.9----
2024-04-14 04:36 pmSSE 9.9 11.1----30.10-- 68.9----
2024-04-14 04:30 pmSSE 11.1 13.0----30.10-- 69.1----
2024-04-14 04:24 pmSSE 9.9 12.0----30.10-- 69.1----
2024-04-14 04:18 pmSSE 8.9 12.0----30.10- 73.2 69.1 66.0---
2024-04-14 04:12 pmSSE 8.9 13.0----30.10- 73.0 69.3 66.0---
2024-04-14 04:06 pmSSE 11.1 13.0----30.10- 72.9 69.3 66.2---
2024-04-14 04:00 pmSSE 11.1 14.0----30.10-0.07 72.9 69.3 66.6---
2024-04-14 03:54 pmSSE 12.0 15.0----30.09- 72.9 69.4 66.2---
2024-04-14 03:48 pmSSE 12.0 14.0----30.10- 72.7 69.4 66.4---
2024-04-14 03:42 pmSSE 12.0 14.0----30.10- 72.9 69.4 66.4---
2024-04-14 03:36 pmSSE 12.0 14.0----30.10- 72.7 69.4 66.2---
2024-04-14 03:30 pmSSE 12.0 14.0----30.10- 72.7 69.4 66.2---
2024-04-14 03:24 pmSSE 11.1 14.0----30.10- 72.9 69.4 66.7---
2024-04-14 03:18 pmSSE 9.9 13.0----30.11- 72.7 69.8 66.6---
2024-04-14 03:12 pmSSE 12.0 14.0----30.11- 72.9 70.2 65.7---
2024-04-14 03:06 pmSSE 12.0 14.0----30.11- 72.9 70.3 66.0---
2024-04-14 03:00 pmSSE 12.0 14.0----30.11-0.05 72.9 70.3 65.8---
2024-04-14 02:54 pmSSE 13.0 14.0----30.11- 72.9 70.2 66.0---
2024-04-14 02:48 pmSSE 12.0 13.0----30.12- 72.9 70.2 66.6---
2024-04-14 02:42 pmSSE 12.0 13.0----30.12- 72.9 70.2 66.2---
2024-04-14 02:36 pmSSE 11.1 13.0----30.13- 72.7 69.6 66.0---
2024-04-14 02:30 pmSSE 12.0 13.0----30.13- 72.7 69.3 66.2---
2024-04-14 02:24 pmSSE 13.0 14.0----30.14- 72.7 69.3 65.5---
2024-04-14 02:18 pmSSE 11.1 12.0----30.14- 72.5 69.3 65.8---
2024-04-14 02:12 pmSSE 9.9 12.0----30.15- 72.7 69.4 66.2---
2024-04-14 02:06 pmSSE 11.1 12.0----30.15- 72.5 69.8 65.8---
2024-04-14 02:00 pmSSE 11.1 12.0----30.16-0.02------
2024-04-14 01:54 pmSSE 11.1 12.0----30.15-------
2024-04-14 01:48 pmSSE 9.9 12.0----30.16- 72.7 70.3 66.2---
2024-04-14 01:42 pmSSE 11.1 13.0----30.16- 72.5 70.0 65.8---
2024-04-14 01:36 pmSSE 11.1 13.0----30.15- 72.5 70.0 66.4---
2024-04-14 01:30 pmSSE 12.0 14.0----30.15- 72.5 69.4 66.0---
2024-04-14 01:24 pmSSE 11.1 12.0----30.16- 72.5 69.4 65.5---
2024-04-14 01:18 pmSSE 8.9 12.0----30.16- 72.5 69.3 66.2---
2024-04-14 01:12 pmSSE 9.9 12.0----30.16- 72.7 69.4 65.8---
2024-04-14 01:06 pmSSE 9.9 12.0----30.17- 72.5 69.4 65.7---
2024-04-14 01:00 pm SE 11.1 13.0----30.16-0.01 72.5 69.4 66.2---
2024-04-14 12:54 pm SE 9.9 11.1----30.17- 72.3 69.4 66.4---
2024-04-14 12:48 pmSSE 11.1 12.0----30.17- 72.5 69.4 66.0---
2024-04-14 12:42 pm SE 9.9 12.0----30.17- 72.3 69.4 66.4---
2024-04-14 12:36 pm SE 11.1 12.0----30.17- 72.1 69.4 66.0---
2024-04-14 12:30 pm SE 11.1 12.0----30.17- 72.1 69.1 65.7---
2024-04-14 12:24 pm SE 11.1 13.0----30.17- 72.5 68.9 65.8---
2024-04-14 12:18 pmSSE 11.1 13.0----30.17- 72.3 68.9 66.0---
2024-04-14 12:12 pmSSE 9.9 13.0----30.17- 72.3 68.9 66.4---
2024-04-14 12:06 pmSSE 12.0 14.0----30.16- 72.0 68.9 66.2---
2024-04-14 12:00 pmSSE 12.0 13.0----30.17+0.00 72.1 68.7 66.4---
2024-04-14 11:54 amSSE 11.1 13.0----30.17- 72.3 68.7 66.2---
2024-04-14 11:48 amSSE 11.1 12.0----30.18-- 68.7----
2024-04-14 11:42 amSSE 11.1 13.0----30.18-- 68.9----
2024-04-14 11:36 amSSE 12.0 13.0----30.17-- 68.5----
2024-04-14 11:30 am SE 12.0 13.0----30.17-- 68.5----
2024-04-14 11:24 am SE 11.1 12.0----30.18-- 68.5----
2024-04-14 11:18 am SE 11.1 12.0----30.18- 72.0 68.4 66.0---
2024-04-14 11:12 am SE 9.9 11.1----30.18- 71.8 68.7 66.2---
2024-04-14 11:06 am SE 9.9 11.1----30.18- 72.0 68.4 65.8---
2024-04-14 11:00 am SE 8.9 11.1----30.18+0.03 71.8 68.2 66.2---
2024-04-14 10:54 am SE 8.9 11.1----30.18- 71.8 68.2 66.2---
2024-04-14 10:48 am SE 11.1 12.0----30.18- 72.0 68.2 66.0---
2024-04-14 10:42 am SE 9.9 11.1----30.17- 71.8 68.2 65.8---
2024-04-14 10:36 amSSE 9.9 11.1----30.18- 71.8 68.0 66.0---
2024-04-14 10:30 amSSE 8.9 11.1----30.18-- 67.8----
2024-04-14 10:24 am SE 9.9 11.1----30.18-- 67.8----
2024-04-14 10:18 am SE 8.0 12.0----30.18-- 67.8----
2024-04-14 10:12 amSSE 11.1 12.0----30.17-- 67.8----
2024-04-14 10:06 amSSE 8.9 9.9----30.17-- 67.6----
2024-04-14 10:00 amSSE 9.9 11.1----30.18+0.03 71.6 67.6 66.0---
2024-04-14 09:54 amSSE 8.9 9.9----30.17- 71.6 67.6 66.2---
2024-04-14 09:48 amSSE 8.9 9.9----30.17- 71.6 67.6 66.2---
2024-04-14 09:42 amSSE 8.9 11.1----30.17- 71.6 67.5 66.4---
2024-04-14 09:36 am SE 9.9 11.1----30.16- 71.6 67.5 66.4---
2024-04-14 09:30 am SE 9.9 11.1----30.16- 71.4 67.3 66.2---
2024-04-14 09:24 am SE 9.9 11.1----30.16- 71.6 67.3 66.6---
2024-04-14 09:18 am SE 8.9 9.9----30.17- 71.6 67.3 66.6---
2024-04-14 09:12 am SE 8.0 8.9----30.17- 71.6 67.3 66.7---
2024-04-14 09:06 am SE 8.9 9.9----30.17- 72.0 67.3 66.4---
2024-04-14 09:00 amSSE 8.9 9.9----30.17+0.03- 67.3----
2024-04-14 08:54 amSSE 8.9 9.9----30.17-- 67.1----
2024-04-14 08:48 amSSE 8.0 9.9----30.17- 72.3 67.1 66.0---
2024-04-14 08:42 amSSE 8.9 9.9----30.17- 72.0 67.1 65.8---
2024-04-14 08:36 amSSE 8.9 9.9----30.17- 72.0 67.1 66.2---
2024-04-14 08:30 amSSE 9.9 11.1----30.16-- 67.1----
2024-04-14 08:24 amSSE 8.9 9.9----30.16-- 67.1----
2024-04-14 08:18 amSSE 8.9 9.9----30.16- 72.0 67.1 66.2---
2024-04-14 08:12 amSSE 9.9 11.1----30.16- 71.8 67.1 66.0---
2024-04-14 08:06 amSSE 9.9 11.1----30.16- 71.6 67.1 66.0---
2024-04-14 08:00 amSSE 9.9 11.1----30.15- 71.6 67.1 66.2---
2024-04-14 07:54 amSSE 8.9 9.9----30.15- 71.6 67.1 66.4---
2024-04-14 07:48 am-------30.15- 71.6 67.1 66.2---
2024-04-14 07:42 am-------30.15- 71.6 67.1 66.0---
2024-04-14 07:36 am-------30.15- 71.6 67.1 66.0---
2024-04-14 07:30 amSSE 8.9 11.1----30.15-- 67.1----
2024-04-14 07:24 amSSE 9.9 13.0----30.14-- 67.1----
2024-04-14 07:18 amSSE 11.1 12.0----30.14- 71.2 67.1 65.3---
2024-04-14 07:12 am S 9.9 11.1----30.14- 71.1 67.1 65.5---
2024-04-14 07:06 am S 8.9 11.1----30.15- 70.9 67.1 65.7---
2024-04-14 07:00 am S 8.9 9.9----30.15+0.02- 67.1----
2024-04-14 06:54 amSSE 9.9 11.1----30.14-- 67.1----
2024-04-14 06:48 amSSE 9.9 11.1----30.14-- 67.1----
2024-04-14 06:42 amSSE 8.9 11.1----30.14-- 67.1----
2024-04-14 06:36 amSSE 8.9 9.9----30.15-- 67.1----
2024-04-14 06:30 amSSE 9.9 9.9----30.14- 70.5 67.1 64.9---
2024-04-14 06:24 amSSE 8.9 11.1----30.14- 70.5 67.1 64.9---
2024-04-14 06:18 am S 8.9 9.9----30.14-------
2024-04-14 06:12 amSSE 8.9 11.1----30.14-------
2024-04-14 06:06 amSSE 11.1 12.0----30.14-------
2024-04-14 06:00 amSSE 9.9 12.0----30.14+0.01 70.5 67.1 64.6---
2024-04-14 05:54 amSSE 9.9 11.1----30.14- 70.7 67.1 65.1---
2024-04-14 05:48 amSSE 9.9 12.0----30.13-- 67.1----
2024-04-14 05:42 amSSE 11.1 12.0----30.13-- 67.1----
2024-04-14 05:36 amSSE 9.9 12.0----30.13-- 67.1----
2024-04-14 05:30 amSSE 12.0 13.0----30.12- 70.7 67.1 64.6---
2024-04-14 05:24 amSSE 12.0 14.0----30.12- 70.9 67.1 64.8---
2024-04-14 05:18 amSSE 12.0 13.0----30.12- 70.7 67.1 64.4---
2024-04-14 05:12 amSSE 11.1 13.0----30.13- 70.7 67.1 64.2---
2024-04-14 05:06 amSSE 9.9 12.0----30.13- 70.7 67.1 64.9---
2024-04-14 05:00 amSSE 11.1 12.0------ 70.7- 64.0---
2024-04-14 04:54 amSSE 11.1 12.0------ 70.7- 64.4---
2024-04-14 04:48 amSSE 11.1 14.0------ 70.7 67.3 63.7---
2024-04-14 04:42 amSSE 12.0 13.0------ 70.5 67.3 63.5---
2024-04-14 04:36 amSSE 11.1 12.0------ 70.7 67.3 63.7---
2024-04-14 04:30 amSSE 11.1 12.0----30.13-- 67.3----
2024-04-14 04:24 amSSE 11.1 13.0----30.12-- 67.3----
2024-04-14 04:18 amSSE 11.1 13.0----30.12- 70.9 67.3 64.0---
2024-04-14 04:12 amSSE 12.0 13.0----30.12- 70.7 67.3 63.5---
2024-04-14 04:06 amSSE 9.9 12.0----30.13- 70.7 67.3 64.2---
2024-04-14 04:00 amSSE 12.0 13.0----30.13-0.05 70.9 67.3 64.0---
2024-04-14 03:54 amSSE 11.1 12.0----30.13- 70.7 67.3 64.0---
2024-04-14 03:48 amSSE 11.1 12.0----30.13- 70.7 67.3 64.6---
2024-04-14 03:42 amSSE 11.1 13.0----30.13- 70.7 67.3 65.1---
2024-04-14 03:36 amSSE 11.1 12.0----30.13- 70.5 67.3 64.8---
2024-04-14 03:30 amSSE 11.1 13.0----30.13- 70.5 67.3 64.6---
2024-04-14 03:24 amSSE 9.9 12.0----30.13- 70.5 67.3 64.8---
2024-04-14 03:18 amSSE 12.0 13.0----30.13- 70.7 67.3 64.2---
2024-04-14 03:12 amSSE 11.1 13.0----30.13- 70.7 67.3 64.6---
2024-04-14 03:06 amSSE 12.0 13.0----30.13- 70.9 67.5 64.4---
2024-04-14 03:00 amSSE 11.1 13.0----30.12-0.06 70.7 67.5 64.8---
2024-04-14 02:54 amSSE 13.0 14.0----30.13- 70.9 67.5 63.9---
2024-04-14 02:48 amSSE 12.0 13.0----30.13- 70.7 67.5 64.0---
2024-04-14 02:42 amSSE 12.0 15.0----30.13- 70.9 67.5 64.2---
2024-04-14 02:36 amSSE 12.0 14.0----30.13- 70.7 67.5 63.7---
2024-04-14 02:30 amSSE 12.0 14.0----30.13- 70.7 67.5 64.2---
2024-04-14 02:24 amSSE 13.0 15.0----30.13- 70.9 67.5 63.9---
2024-04-14 02:18 amSSE 14.0 15.0----30.13- 71.1 67.5 63.7---
2024-04-14 02:12 amSSE 13.0 14.0----30.14- 70.9 67.5 63.5---
2024-04-14 02:06 amSSE 12.0 14.0----30.14- 70.7 67.5 64.2---
2024-04-14 02:00 amSSE 13.0 15.0----30.14-0.05 70.9 67.5 63.7---
2024-04-14 01:54 amSSE 12.0 15.0----30.14- 70.9 67.5 63.5---
2024-04-14 01:48 amSSE 14.0 15.0----30.15- 71.1 67.5 63.1---
2024-04-14 01:42 amSSE 12.0 14.0----30.16- 70.9 67.5 63.1---
2024-04-14 01:36 amSSE 12.0 13.0----30.16- 70.9 67.6 63.7---
2024-04-14 01:30 amSSE 12.0 13.0----30.16- 70.9 67.6 63.3---
2024-04-14 01:24 amSSE 12.0 15.0----30.16- 71.2 67.6 63.5---
2024-04-14 01:18 amSSE 13.0 15.0----30.16- 71.1 67.6 63.0---
2024-04-14 01:12 amSSE 13.0 14.0----30.17- 71.1 67.6 63.1---
2024-04-14 01:06 amSSE 13.0 15.0----30.17- 71.1 67.6 63.1---
2024-04-14 01:00 amSSE 13.0 15.0----30.17-0.03 71.1 67.6 63.0---
2024-04-14 12:54 amSSE 13.0 14.0----30.17- 70.9 67.6 62.6---